This is the latest recevied weather packets stored in our database for station/object KF4ERV-4. If no packets are shown the sender has not sent any weather packets the latest 1 day(s).
| Time | Temp. | Humidity | Pressure | Rain* | Wind** | Luminosity | Snow |
|---|---|---|---|---|---|---|---|
| 1778056191 | 8.89° C | 77% | 1010 hPa | 0.25 mm | - | - | - |
| 1778056125 | 9.44° C | 77% | 1010 hPa | 0.51 mm | - | - | - |
| 1778056052 | 9.44° C | 77% | 1010 hPa | 0.51 mm | - | - | - |
| 1778056012 | 9.44° C | 77% | 1010 hPa | 0.51 mm | - | - | - |
| 1778055955 | 9.44° C | 78% | 1009.2 hPa | 0.51 mm | - | - | - |
| 1778055937 | 9.44° C | 77% | 1010 hPa | 0.51 mm | - | - | - |
| 1778055937 | 9.44° C | 77% | 1010 hPa | 0.51 mm | - | - | - |
| 1778055432 | 9.44° C | 78% | 1009.2 hPa | 0.51 mm | - | - | - |
| 1778054992 | 9.44° C | 77% | 1009 hPa | 0.76 mm | - | - | - |
| 1778054852 | 9.44° C | 78% | 1009 hPa | 1.02 mm | - | - | - |
| 1778054695 | 9.44° C | 78% | 1009 hPa | 1.02 mm | - | - | - |
| 1778054562 | 9.44° C | 78% | 1009 hPa | 1.27 mm | - | - | - |
| 1778054399 | 9.44° C | 78% | 1009 hPa | 1.27 mm | - | - | - |
| 1778054272 | 10° C | 78% | 1009 hPa | 1.78 mm | - | - | - |
| 1778054090 | 10° C | 78% | 1009 hPa | 1.78 mm | - | - | - |
| 1778053793 | 10° C | 78% | 1008.9 hPa | 1.78 mm | - | - | - |
| 1778053692 | 10° C | 78% | 1009 hPa | 2.03 mm | - | - | - |
| 1778053496 | 10° C | 78% | 1009 hPa | 2.03 mm | - | - | - |
| 1778053402 | 10° C | 78% | 1009 hPa | 2.29 mm | - | - | - |
| 1778053257 | 10° C | 78% | 1009 hPa | 2.29 mm | - | - | - |
| 1778053199 | 10° C | 78% | 1009 hPa | 2.29 mm | - | - | - |
| 1778053113 | 10° C | 78% | 1009 hPa | 2.29 mm | - | - | - |
| 1778053072 | 10° C | 79% | 1008.6 hPa | 2.79 mm | - | - | - |
| 1778052891 | 10° C | 78% | 1009 hPa | 2.29 mm | - | - | - |
| 1778052822 | 10° C | 78% | 1009 hPa | 2.54 mm | - | - | - |
* Rain latest hour (hover to see other rain measurements)
** Current wind speed in m/s (hover to see current wind gust speed)